User: anonymous   Login
Location: Unspecified
(0.0000°N, 0.0000°E)
Time: 22:11:52
(UTC+00:00)
Language:

Uosat F - Orbit

View from above orbital plane
View from above orbital plane
View from above satellite
View from above satellite

Ground track
Ground track

The orbit data is extracted from the following two-line orbital elements,

1 21575U 91050B   23083.18019407  .00001339  00000-0  42825-3 0  9991
2 21575  98.4911 151.6514 0008267 125.0611 235.1355 14.41218509664562
Epoch (UTC): 24 March 2023 04:19:28
Eccentricity: 0.0008267
inclination: 98.4911°
perigee height: 748 km
apogee height: 760 km
right ascension of ascending node: 151.6514°
argument of perigee: 125.0611°
revolutions per day: 14.41218509
mean anomaly at epoch: 235.1355°
orbit number at epoch: 66456

The dashed part of the orbit path shows where the satellite is in the earth's shadow,  

DLR